Home > Weather > Dannenberg > Past weeks

Flag for Germany Weather for the Past 2 Weeks in Dannenberg, Lower Saxony, Germany

Now
34 °F

Fog.


Feels Like: 30 °F
Forecast: 33 / 42 °F
Wind: 5 mph from East

Location: Fassberg

Current Time: Feb 12, 2016 at 10:43:56 PM

Latest Report: Feb 12, 2016 at 9:20 PM


Visibility: 2 mi

Pressure: 29.50 "Hg

Humidity: 93%

Dew point: 32 °F

Location of DannenbergLocation

Historic Weather in Dannenberg — Graph

°F

Dannenberg Temperature Yesterday

Maximum temperature yesterday: 43 °F (at 1:20 PM)
Minimum temperature yesterday: 32 °F (at 11:20 PM)
Average temperature yesterday: 39 °F

High & Low Weather Summary for the Past Weeks

 TemperatureHumidityPressure
High55 °F (Feb 7, 1:20 PM)100% (Feb 1, 7:20 AM)30.21 "Hg (Feb 1, 7:20 AM)
Low30 °F (Feb 12, 3:20 AM)55% (Feb 7, 1:20 PM)28.77 "Hg (Feb 9, 9:20 PM)
Average42 °F83%29.68 "Hg
* Reported Jan 28 8:20 PM — Feb 12 8:20 PM, Dannenberg, Weather by CustomWeather, © 2016

Note: Actual official high and low records may vary slightly from our data, if they occured in-between our weather recording intervals... More about our weather records

Advertising

Dannenberg Weather History for the Previous 24 Hours

 ConditionsComfort  
Time TempWeatherWind HumidityBarometerVisibility
8:20 PM
Fri, Feb 12
32 °FIce fog.6 mph100%29.50 "Hg2 mi
7:20 PM32 °FIce fog.5 mph93%29.50 "Hg2 mi
6:50 PM32 °FIce fog.6 mph93%29.50 "Hg2 mi
6:20 PM32 °FPassing clouds.5 mph100%29.50 "Hg4 mi
5:20 PM36 °FScattered clouds.3 mph93%29.53 "HgN/A
4:20 PM37 °FScattered clouds.3 mph87%29.53 "HgN/A
3:20 PM39 °FPartly sunny.3 mph81%29.53 "Hg6 mi
2:20 PM39 °FPartly sunny.2 mph81%29.53 "Hg4 mi
1:50 PM39 °FBroken clouds.5 mph87%29.53 "Hg4 mi
1:20 PM37 °FPartly sunny.5 mph93%29.56 "Hg4 mi
12:20 PM36 °FFog.3 mph100%29.56 "Hg1 mi
11:20 AM34 °FFog.3 mph100%29.59 "Hg1 mi
10:20 AM34 °FFog.3 mph93%29.59 "Hg1 mi
9:20 AM32 °FFog.3 mph100%29.59 "Hg0 mi
8:20 AM32 °FIce fog.3 mph93%29.59 "Hg0 mi
7:20 AM30 °FIce fog.8 mph100%29.59 "Hg0 mi
6:20 AM30 °FIce fog.8 mph93%29.59 "Hg1 mi
5:20 AM30 °FIce fog.6 mph100%29.59 "Hg1 mi
4:20 AM30 °FIce fog.6 mph100%29.59 "Hg2 mi
3:20 AM30 °FIce fog.7 mph100%29.59 "Hg3 mi
2:20 AM32 °FChilly.5 mph93%29.59 "Hg4 mi
1:20 AM32 °FChilly.6 mph93%29.59 "Hg4 mi
12:20 AM32 °FChilly.6 mph93%29.59 "Hg5 mi
11:20 PM
Thu, Feb 11
32 °FPassing clouds.6 mph93%29.59 "HgN/A
10:20 PM34 °FPassing clouds.7 mph93%29.59 "HgN/A
Weather by CustomWeather, © 2016

See weather overviewHow to use our weather pages